KF6ILA Weather Reports


time (UTC)temp
F
wind
direction
speed
knots
gust
knots
rain 1hr
in
rain 24hr
in
rain mn
in
humidity
%
barometer
mb
20240421000433 72 286 6.1 9.6 0.00 0.00 0.00 56 1014.7
20240420235936 72 288 4.3 9.6 0.00 0.00 0.00 57 1014.6
20240420235439 72 279 6.1 8.7 0.00 0.00 0.00 56 1014.7
20240420234942 72 277 4.3 8.7 0.00 0.00 0.00 56 1014.8
20240420234444 72 282 5.2 8.7 0.00 0.00 0.00 57 1014.8
20240420233947 71 287 5.2 9.6 0.00 0.00 0.00 57 1014.7
20240420233451 71 278 5.2 10.4 0.00 0.00 0.00 58 1014.7
20240420232953 71 279 5.2 10.4 0.00 0.00 0.00 57 1014.7
20240420231959 71 289 6.1 11.3 0.00 0.00 0.00 59 1014.9
20240420231038 71 271 6.1 11.3 0.00 0.00 0.00 58 1014.9
20240420231006 71 271 6.1 11.3 0.00 0.00 0.00 58 1014.9
20240420230508 71 270 7.0 11.3 0.00 0.00 0.00 57 1015.0
20240420225515 71 272 6.1 11.3 0.00 0.00 0.00 58 1014.9
20240420225018 71 271 7.8 10.4 0.00 0.00 0.00 56 1014.9
20240420224521 71 272 6.1 12.2 0.00 0.00 0.00 58 1015.0
20240420224023 71 289 7.8 12.2 0.00 0.00 0.00 57 1015.0
20240420223527 71 270 7.0 13.0 0.00 0.00 0.00 57 1014.9
20240420223029 71 283 7.8 13.0 0.00 0.00 0.00 58 1014.9
20240420222533 72 281 7.8 13.0 0.00 0.00 0.00 57 1015.0
20240420222036 72 281 7.8 11.3 0.00 0.00 0.00 57 1015.2
20240420221539 72 279 7.0 11.3 0.00 0.00 0.00 57 1015.1
20240420221042 72 265 6.1 13.0 0.00 0.00 0.00 57 1015.1
20240420220545 71 280 8.7 14.8 0.00 0.00 0.00 57 1015.3
20240420220048 72 283 9.6 14.8 0.00 0.00 0.00 57 1015.4
20240420215551 72 285 8.7 13.0 0.00 0.00 0.00 58 1015.3
20240420215054 73 279 9.6 13.0 0.00 0.00 0.00 54 1015.3
20240420214557 73 276 7.8 10.4 0.00 0.00 0.00 54 1015.2
20240420214101 74 287 6.1 10.4 0.00 0.00 0.00 53 1015.3
20240420213603 74 266 5.2 8.7 0.00 0.00 0.00 55 1015.5
20240420213107 73 0 0.0 7.0 0.00 0.00 0.00 53 1015.6
20240420212705 73 273 3.5 8.7 0.00 0.00 0.00 55 1015.6
20240420212610 73 273 3.5 8.7 0.00 0.00 0.00 55 1015.6
20240420212113 74 284 4.3 8.7 0.00 0.00 0.00 54 1015.5
20240420211616 74 264 2.6 7.8 0.00 0.00 0.00 53 1015.5
20240420211119 74 251 3.5 7.8 0.00 0.00 0.00 53 1015.6
20240420210622 74 286 2.6 6.1 0.00 0.00 0.00 53 1015.6
20240420210125 74 360 1.7 6.1 0.00 0.00 0.00 50 1015.5
20240420205628 75 307 3.5 6.1 0.00 0.00 0.00 50 1015.7
20240420205131 75 196 2.6 5.2 0.00 0.00 0.00 48 1015.8
20240420204634 74 294 2.6 7.8 0.00 0.00 0.00 52 1015.9
20240420204137 74 245 3.5 7.8 0.00 0.00 0.00 50 1016.0
20240420203640 73 331 1.7 9.6 0.00 0.00 0.00 51 1015.9
20240420203143 73 277 3.5 9.6 0.00 0.00 0.00 55 1015.9
20240420202646 73 271 1.7 8.7 0.00 0.00 0.00 53 1016.0
20240420202149 72 292 4.3 8.7 0.00 0.00 0.00 53 1016.0
20240420201652 72 279 4.3 9.6 0.00 0.00 0.00 57 1016.0
20240420201156 72 292 7.0 10.4 0.00 0.00 0.00 56 1016.1
20240420200658 72 284 6.1 10.4 0.00 0.00 0.00 54 1016.1
20240420200201 72 275 6.1 11.3 0.00 0.00 0.00 55 1016.1
20240420195704 72 266 6.1 11.3 0.00 0.00 0.00 56 1016.2
20240420194321 72 320 3.5 10.4 0.00 0.00 0.00 53 1016.2
20240420194213 72 320 3.5 10.4 0.00 0.00 0.00 53 1016.2
20240420193716 72 274 5.2 7.8 0.00 0.00 0.00 52 1016.3
20240420193219 72 280 4.3 9.6 0.00 0.00 0.00 53 1016.3
20240420192722 74 292 3.5 9.6 0.00 0.00 0.00 49 1015.6
20240420192225 76 281 7.0 9.6 0.00 0.00 0.00 45 1015.6
20240420191728 77 113 3.5 9.6 0.00 0.00 0.00 35 1015.7
20240420191231 78 37 1.7 12.2 0.00 0.00 0.00 32 1015.6
20240420190734 78 101 5.2 12.2 0.00 0.00 0.00 36 1015.6
20240420190236 78 104 3.5 12.2 0.00 0.00 0.00 34 1015.6
20240420185740 78 129 5.2 13.0 0.00 0.00 0.00 38 1015.6
20240420185243 77 116 5.2 13.0 0.00 0.00 0.00 37 1015.6
20240420184746 77 160 5.2 13.9 0.00 0.00 0.00 36 1015.5
20240420184249 76 115 6.1 13.9 0.00 0.00 0.00 37 1015.5
20240420183255 74 97 4.3 9.6 0.00 0.00 0.00 38 1015.6
20240420182758 72 89 5.2 9.6 0.00 0.00 0.00 43 1015.8
20240420182300 72 0 0.0 5.2 0.00 0.00 0.00 42 1015.7
20240420181804 72 342 1.7 5.2 0.00 0.00 0.00 44 1015.7
20240420181307 71 357 3.5 6.1 0.00 0.00 0.00 41 1015.7
20240420180809 71 256 3.5 7.0 0.00 0.00 0.00 43 1015.7
20240420180313 71 281 2.6 7.0 0.00 0.00 0.00 43 1015.6
20240420175816 71 300 3.5 5.2 0.00 0.00 0.00 44 1015.7
20240420174822 71 351 1.7 7.0 0.00 0.00 0.00 42 1015.7
20240420174324 71 339 4.3 7.0 0.00 0.00 0.00 39 1015.6
20240420173927 71 10 0.9 5.2 0.00 0.00 0.00 40 1015.5
20240420173828 71 10 0.9 5.2 0.00 0.00 0.00 40 1015.5
20240420173330 71 331 2.6 5.2 0.00 0.00 0.00 41 1015.5
20240420172834 71 341 1.7 5.2 0.00 0.00 0.00 43 1015.4
20240420172336 71 343 2.6 5.2 0.00 0.00 0.00 40 1015.4
20240420171839 71 296 2.6 4.3 0.00 0.00 0.00 40 1015.3
20240420171342 70 9 1.7 3.5 0.00 0.00 0.00 40 1015.4
20240420170845 70 349 1.7 5.2 0.00 0.00 0.00 40 1015.3
20240420170349 69 18 2.6 6.1 0.00 0.00 0.00 38 1015.3
20240420165851 69 334 3.5 7.0 0.00 0.00 0.00 40 1015.3
20240420165354 69 298 3.5 7.0 0.00 0.00 0.00 39 1015.3
20240420164857 69 318 1.7 6.1 0.00 0.00 0.00 39 1015.3
20240420163903 69 277 3.5 7.0 0.00 0.00 0.00 38 1015.2
20240420162909 68 296 4.3 7.0 0.00 0.00 0.00 38 1015.1
20240420162412 68 300 3.5 7.0 0.00 0.00 0.00 38 1015.2
20240420161915 68 264 3.5 6.1 0.00 0.00 0.00 40 1015.1
20240420161418 68 288 2.6 5.2 0.00 0.00 0.00 37 1015.1
20240420160922 67 312 2.6 5.2 0.00 0.00 0.00 38 1015.1
20240420160424 67 322 2.6 5.2 0.00 0.00 0.00 35 1015.2
20240420155927 67 313 1.7 5.2 0.00 0.00 0.00 35 1015.1
20240420155519 66 291 2.6 5.2 0.00 0.00 0.00 38 1015.2
20240420155430 66 291 2.6 5.2 0.00 0.00 0.00 38 1015.2
20240420154934 66 280 1.7 7.0 0.00 0.00 0.00 41 1015.2
20240420154436 66 299 4.3 7.8 0.00 0.00 0.00 37 1015.2
20240420153940 65 303 5.2 7.8 0.00 0.00 0.00 35 1015.2
20240420153442 65 259 4.3 10.4 0.00 0.00 0.00 37 1015.2
20240420152945 65 273 5.2 10.4 0.00 0.00 0.00 36 1015.2
20240420152448 65 289 5.2 8.7 0.00 0.00 0.00 40 1015.1
20240420151951 64 272 6.1 9.6 0.00 0.00 0.00 40 1015.1
20240420151455 64 274 6.1 9.6 0.00 0.00 0.00 39 1015.0
20240420150958 64 285 4.3 8.7 0.00 0.00 0.00 43 1014.9
20240420150500 63 263 4.3 7.8 0.00 0.00 0.00 45 1014.8
20240420150003 63 289 5.2 9.6 0.00 0.00 0.00 45 1014.8
20240420145506 62 261 5.2 10.4 0.00 0.00 0.00 46 1014.8
20240420145009 62 288 4.3 10.4 0.00 0.00 0.00 48 1014.7
20240420144512 61 275 5.2 8.7 0.00 0.00 0.00 46 1014.7
20240420144015 61 264 3.5 7.0 0.00 0.00 0.00 50 1014.7
20240420143518 61 301 3.5 7.8 0.00 0.00 0.00 51 1014.6
20240420143021 60 290 3.5 8.7 0.00 0.00 0.00 52 1014.6
20240420142524 60 282 6.1 8.7 0.00 0.00 0.00 51 1014.4
20240420142027 60 284 3.5 9.6 0.00 0.00 0.00 52 1014.4
20240420141530 60 287 5.2 9.6 0.00 0.00 0.00 52 1014.4
20240420141034 59 281 6.1 8.7 0.00 0.00 0.00 53 1014.3
20240420140536 59 284 4.3 8.7 0.00 0.00 0.00 54 1013.4
20240420140039 58 270 4.3 8.7 0.00 0.00 0.00 55 1013.3
20240420135542 58 283 5.2 9.6 0.00 0.00 0.00 56 1013.3
20240420135045 58 281 5.2 9.6 0.00 0.00 0.00 56 1013.2
20240420134549 57 288 6.1 8.7 0.00 0.00 0.00 57 1013.1
20240420134051 57 292 6.1 10.4 0.00 0.00 0.00 58 1013.0
20240420133554 57 288 5.2 10.4 0.00 0.00 0.00 59 1013.1
20240420133057 56 291 4.3 7.0 0.00 0.00 0.00 59 1013.1
20240420132600 56 289 4.3 7.8 0.00 0.00 0.00 59 1013.0
20240420132103 56 278 5.2 9.6 0.00 0.00 0.00 59 1013.0
20240420131606 56 281 5.2 9.6 0.00 0.00 0.00 59 1013.1
20240420131109 56 291 6.1 8.7 0.00 0.00 0.00 59 1013.0
20240420130612 56 281 5.2 9.6 0.00 0.00 0.00 60 1012.9
20240420130116 55 286 6.1 9.6 0.00 0.00 0.00 61 1013.0
20240420125618 54 290 6.1 10.4 0.00 0.00 0.00 61 1013.0
20240420125122 54 273 5.2 10.4 0.00 0.00 0.00 61 1013.0
20240420124624 55 271 6.1 10.4 0.00 0.00 0.00 61 1012.9
20240420124127 55 283 4.3 9.6 0.00 0.00 0.00 61 1012.8
20240420123630 55 283 6.1 9.6 0.00 0.00 0.00 60 1012.6
20240420123133 55 279 5.2 8.7 0.00 0.00 0.00 60 1012.7
20240420122636 55 277 5.2 8.7 0.00 0.00 0.00 61 1012.7
20240420122139 54 279 6.1 11.3 0.00 0.00 0.00 61 1012.6
20240420121642 54 293 5.2 11.3 0.00 0.00 0.00 61 1012.5
20240420121145 54 282 6.1 12.2 0.00 0.00 0.00 61 1012.5
20240420120648 54 285 6.1 12.2 0.00 0.00 0.00 61 1012.6
20240420120151 54 257 7.0 12.2 0.00 0.00 0.00 61 1012.4
20240420115654 54 278 6.1 10.4 0.00 0.00 0.00 61 1012.4
20240420115157 54 265 6.1 10.4 0.00 0.00 0.00 60 1012.4
20240420114203 54 287 5.2 12.2 0.00 0.00 0.00 60 1012.4
20240420113706 54 269 6.1 12.2 0.00 0.00 0.00 60 1012.4
20240420113209 55 275 5.2 11.3 0.00 0.00 0.00 59 1012.4
20240420112712 55 268 6.1 11.3 0.00 0.00 0.00 59 1012.3
20240420112215 55 273 6.1 10.4 0.00 0.00 0.00 59 1012.4
20240420111719 55 275 5.2 10.4 0.00 0.00 0.00 59 1012.4
20240420111221 54 284 6.1 11.3 0.00 0.00 0.00 59 1012.4
20240420110724 54 295 6.1 14.8 0.00 0.00 0.00 59 1012.4
20240420110227 54 277 6.1 14.8 0.00 0.00 0.00 60 1012.4
20240420105730 54 291 6.1 15.6 0.00 0.00 0.00 61 1012.5
20240420105233 54 279 6.1 15.6 0.00 0.00 0.00 62 1012.5
20240420104736 54 281 7.0 11.3 0.00 0.00 0.00 63 1012.5
20240420104239 54 273 7.0 11.3 0.00 0.00 0.00 63 1012.5
20240420103742 53 264 7.8 13.9 0.00 0.00 0.00 64 1012.6
20240420103245 53 263 8.7 13.9 0.00 0.00 0.00 65 1012.6
20240420102748 54 262 8.7 13.0 0.00 0.00 0.00 64 1012.5
20240420102251 54 253 9.6 13.0 0.00 0.00 0.00 64 1012.5
20240420101257 54 276 7.8 13.9 0.00 0.00 0.00 64 1012.5
20240420100800 54 285 7.8 15.6 0.00 0.00 0.00 63 1012.5
20240420100303 54 273 8.7 15.6 0.00 0.00 0.00 62 1012.4
20240420095806 54 276 9.6 14.8 0.00 0.00 0.00 62 1012.4
20240420095309 54 272 8.7 13.0 0.00 0.00 0.00 62 1012.4
20240420094813 54 277 7.8 13.9 0.00 0.00 0.00 62 1012.4
20240420094316 54 281 8.7 13.9 0.00 0.00 0.00 61 1012.4
20240420093818 54 276 7.0 14.8 0.00 0.00 0.00 61 1012.4
20240420093321 54 276 7.0 14.8 0.00 0.00 0.00 61 1012.5
20240420092824 54 270 7.8 13.9 0.00 0.00 0.00 62 1012.4
20240420092327 54 265 8.7 13.9 0.00 0.00 0.00 63 1012.5
20240420091830 54 279 7.0 13.9 0.00 0.00 0.00 62 1012.5
20240420091333 54 273 7.0 10.4 0.00 0.00 0.00 62 1012.5
20240420090836 54 286 7.0 12.2 0.00 0.00 0.00 64 1012.5
20240420090340 53 283 7.8 12.2 0.00 0.00 0.00 67 1012.7
20240420085842 53 285 7.0 11.3 0.00 0.00 0.00 69 1012.6
20240420085345 53 275 7.0 11.3 0.00 0.00 0.00 70 1012.6
20240420084848 53 280 6.1 12.2 0.00 0.00 0.00 71 1012.7
20240420084351 52 286 8.7 12.2 0.00 0.00 0.00 72 1012.6
20240420083854 52 285 6.1 11.3 0.00 0.00 0.00 72 1012.7
20240420083357 53 286 6.1 10.4 0.00 0.00 0.00 72 1012.6
20240420082900 53 269 7.0 13.9 0.00 0.00 0.00 71 1012.6
20240420082403 53 274 7.8 13.9 0.00 0.00 0.00 71 1012.7
20240420081906 53 278 8.7 14.8 0.00 0.00 0.00 70 1012.6
20240420081409 53 268 11.3 14.8 0.00 0.00 0.00 69 1012.7
20240420080912 53 268 9.6 14.8 0.00 0.00 0.00 68 1012.7
20240420080415 53 266 11.3 15.6 0.00 0.00 0.00 66 1012.8
20240420075919 54 268 10.4 16.5 0.00 0.00 0.00 66 1012.8
20240420075422 54 265 11.3 16.5 0.00 0.00 0.00 65 1012.6
20240420074924 54 262 10.4 15.6 0.00 0.00 0.00 64 1012.6
20240420073930 53 262 10.4 14.8 0.00 0.00 0.00 62 1012.7
20240420073434 53 265 10.4 13.9 0.00 0.00 0.00 63 1012.7
20240420072937 53 271 8.7 13.0 0.00 0.00 0.00 62 1012.7
20240420072439 53 260 7.8 14.8 0.00 0.00 0.00 59 1012.8
20240420071943 54 263 9.6 14.8 0.00 0.00 0.00 60 1012.7
20240420071446 53 261 11.3 17.4 0.00 0.00 0.00 60 1012.8
20240420070948 53 255 12.2 17.4 0.00 0.00 0.00 57 1012.8
20240420070451 53 254 13.0 19.1 0.00 0.00 0.00 57 1012.8
20240420065955 53 256 11.3 19.1 0.00 0.00 0.00 54 1012.7
20240420065457 53 262 13.0 17.4 0.00 0.00 0.00 53 1012.9
20240420065000 53 260 11.3 17.4 0.00 0.00 0.00 53 1012.8
20240420064504 53 258 11.3 17.4 0.00 0.00 0.00 52 1012.9
20240420064006 52 257 11.3 17.4 0.00 0.00 0.00 48 1012.6
20240420063509 52 253 12.2 18.2 0.00 0.00 0.00 50 1012.4
20240420063012 51 251 12.2 20.0 0.00 0.00 0.00 48 1012.3
20240420062515 51 253 14.8 20.0 0.00 0.00 0.00 49 1012.4
20240420062018 51 252 14.8 18.2 0.00 0.00 0.00 50 1012.4
20240420061522 52 253 13.9 19.1 0.00 0.00 0.00 49 1012.5
20240420061024 52 259 13.9 19.1 0.00 0.00 0.00 48 1012.4
20240420060527 52 262 12.2 18.2 0.00 0.00 0.00 47 1012.5
20240420060030 52 260 11.3 18.2 0.00 0.00 0.00 46 1012.5
20240420055533 52 265 13.9 18.2 0.00 0.00 0.00 46 1012.6
20240420055037 52 271 13.9 19.1 0.00 0.00 0.00 44 1012.5
20240420054539 52 269 13.0 20.0 0.00 0.00 0.00 44 1012.6
20240420054042 52 266 14.8 20.0 0.00 0.00 0.00 44 1012.6
20240420053545 52 260 14.8 20.0 0.00 0.00 0.00 47 1012.4
20240420053049 52 261 14.8 20.0 0.00 0.00 0.00 49 1012.4
20240420052551 52 265 13.9 19.1 0.00 0.00 0.00 49 1013.2
20240420052054 52 259 13.9 20.9 0.00 0.00 0.00 48 1013.2
20240420051557 52 258 16.5 21.7 0.00 0.00 0.00 49 1013.1
20240420051100 52 262 14.8 21.7 0.00 0.00 0.00 50 1013.3
20240420050604 51 268 12.2 19.1 0.00 0.00 0.00 52 1013.2
20240420050106 51 253 14.8 19.1 0.00 0.00 0.00 54 1013.2
20240420045609 52 253 13.9 17.4 0.00 0.00 0.00 53 1013.1
20240420045112 52 258 11.3 16.5 0.00 0.00 0.00 54 1013.2
20240420044615 52 258 12.2 16.5 0.00 0.00 0.00 53 1013.1
20240420044118 52 260 12.2 18.2 0.00 0.00 0.00 53 1013.1
20240420043621 52 257 13.9 19.1 0.00 0.00 0.00 54 1013.1
20240420043202 51 254 14.8 20.9 0.00 0.00 0.00 59 1013.0
20240420043124 51 254 14.8 20.9 0.00 0.00 0.00 59 1013.0
20240420042627 51 252 16.5 20.9 0.00 0.00 0.00 61 1013.0
20240420042130 51 255 13.9 21.7 0.00 0.00 0.00 60 1012.9
20240420041633 51 260 18.2 21.7 0.00 0.00 0.00 61 1012.8
20240420041136 51 255 15.6 20.9 0.00 0.00 0.00 62 1012.7
20240420040639 51 253 16.5 20.9 0.00 0.00 0.00 63 1012.6
20240420040142 50 250 16.5 21.7 0.00 0.00 0.00 69 1012.6
20240420035645 51 251 16.5 22.6 0.00 0.00 0.00 69 1012.4
20240420035148 51 252 17.4 22.6 0.00 0.00 0.00 69 1012.4
20240420034651 51 255 16.5 23.5 0.00 0.00 0.00 72 1012.2
20240420034154 51 257 17.4 23.5 0.00 0.00 0.00 70 1012.1
20240420033658 51 256 17.4 24.3 0.00 0.00 0.00 67 1012.0
20240420032703 51 258 18.2 23.5 0.00 0.00 0.00 70 1011.9
20240420032207 51 258 17.4 24.3 0.00 0.00 0.00 74 1011.8
20240420031710 50 261 17.4 24.3 0.00 0.00 0.00 79 1011.7
20240420031212 50 258 18.2 22.6 0.00 0.00 0.00 84 1011.6
20240420030716 49 259 15.6 22.6 0.00 0.00 0.00 90 1011.6
20240420030218 50 267 15.6 22.6 0.00 0.00 0.00 91 1011.7
20240420025721 50 270 15.6 22.6 0.00 0.00 0.00 91 1011.4
20240420025224 50 262 15.6 20.9 0.00 0.00 0.00 90 1011.3
20240420024727 50 262 15.6 20.9 0.00 0.00 0.00 91 1011.3
20240420024230 50 263 15.6 20.9 0.00 0.00 0.00 90 1011.3
20240420023734 50 266 14.8 20.9 0.00 0.00 0.00 92 1011.3
20240420023237 50 265 15.6 20.9 0.00 0.00 0.00 92 1011.3
20240420022739 51 269 13.0 20.9 0.00 0.00 0.00 92 1011.4
20240420022242 51 273 13.9 22.6 0.00 0.00 0.00 92 1011.4
20240420021745 51 262 17.4 22.6 0.00 0.00 0.00 91 1011.4
20240420021248 51 268 15.6 22.6 0.00 0.00 0.00 90 1011.3
20240420020752 52 268 13.9 23.5 0.00 0.00 0.00 88 1011.2
20240420020254 52 262 16.5 24.3 0.00 0.00 0.00 88 1011.1
20240420015758 53 257 17.4 24.3 0.00 0.00 0.00 88 1011.1
20240420015300 53 253 16.5 24.3 0.00 0.00 0.00 87 1011.0
20240420014803 53 259 19.1 25.2 0.00 0.00 0.00 86 1011.0
20240420014307 53 256 18.2 25.2 0.00 0.00 0.00 85 1011.0
20240420013810 54 254 18.2 24.3 0.00 0.00 0.00 84 1011.2
20240420013312 54 254 19.1 25.2 0.00 0.00 0.00 84 1011.1
20240420012815 54 258 20.9 25.2 0.00 0.00 0.00 82 1011.1
20240420012318 55 260 18.2 24.3 0.00 0.00 0.00 82 1011.3
20240420011821 55 258 19.1 24.3 0.00 0.00 0.00 81 1011.2
20240420011324 56 260 18.2 25.2 0.00 0.00 0.00 80 1011.2
20240420010827 56 269 18.2 25.2 0.00 0.00 0.00 80 1011.3
20240420010330 56 266 18.2 24.3 0.00 0.00 0.00 78 1011.3
20240420005833 56 266 16.5 23.5 0.00 0.00 0.00 78 1011.4
20240420005337 57 273 15.6 21.7 0.00 0.00 0.00 79 1011.4
20240420004839 57 270 15.6 24.3 0.00 0.00 0.00 78 1011.4
20240420004343 57 266 18.2 24.3 0.00 0.00 0.00 76 1011.3
20240420003845 58 271 14.8 24.3 0.00 0.00 0.00 77 1011.2
20240420003348 58 273 16.5 24.3 0.00 0.00 0.00 75 1011.2
20240420002851 58 264 15.6 22.6 0.00 0.00 0.00 75 1011.3
20240420002354 59 278 14.8 22.6 0.00 0.00 0.00 74 1011.2
20240420001858 59 259 15.6 22.6 0.00 0.00 0.00 73 1011.4
20240420001401 59 272 14.8 23.5 0.00 0.00 0.00 72 1011.3
20240420000903 59 278 14.8 24.3 0.00 0.00 0.00 74 1011.2